KG4GJX Weather Reports


Display with metric or nautical units.
time (UTC)temp
F
wind
direction
speed
MPH
gust
MPH
rain 1hr
in
rain 24hr
in
rain mn
in
humidity
%
barometer
mb
20260505165527 76 168 1.0 13.0 0.00 0.00 0.00 49 1014.9
20260505164425 76 62 3.0 14.0 0.00 0.00 0.00 51 1014.9
20260505163323 75 171 5.0 12.0 0.00 0.00 0.00 53 1014.9
20260505162221 75 73 3.0 9.0 0.00 0.00 0.00 55 1014.9
20260505161118 74 210 4.0 8.0 0.00 0.00 0.00 55 1014.9
20260505152709 73 167 2.0 7.0 0.00 0.00 0.00 59 1014.9
20260505151607 72 179 2.0 7.0 0.00 0.00 0.00 58 1014.9
20260505150504 71 175 0.0 8.0 0.00 0.00 0.00 62 1014.9
20260505124133 59 187 0.0 0.0 0.00 0.00 0.00 85 1014.5
20260505123031 59 187 0.0 3.0 0.00 0.00 0.00 86 1014.2
20260505121929 58 22 0.0 2.0 0.00 0.00 0.00 90 1014.2
20260505120826 56 146 0.0 2.0 0.00 0.00 0.00 91 1014.2
20260505115724 55 111 0.0 4.0 0.00 0.00 0.00 92 1013.8
20260505114621 53 161 2.0 4.0 0.00 0.00 0.00 92 1013.8
20260505113519 53 165 0.0 2.0 0.00 0.00 0.00 94 1013.5
20260505112416 51 128 1.0 2.0 0.00 0.00 0.00 95 1013.5
20260505111314 51 139 0.0 0.0 0.00 0.00 0.00 96 1013.2
20260505110212 51 60 0.0 0.0 0.00 0.00 0.00 97 1013.2
20260505101805 51 60 0.0 0.0 0.00 0.00 0.00 95 1012.8
20260505100702 51 60 0.0 0.0 0.00 0.00 0.00 94 1013.2
20260505095600 51 60 0.0 0.0 0.00 0.00 0.00 93 1013.2
20260505094457 51 60 0.0 1.0 0.00 0.00 0.00 93 1013.2
20260505093355 52 241 0.0 1.0 0.00 0.00 0.00 92 1012.8
20260505092252 53 88 0.0 0.0 0.00 0.00 0.00 91 1012.8
20260505091150 53 88 0.0 0.0 0.00 0.00 0.00 89 1012.8
20260505090047 53 190 0.0 0.0 0.00 0.00 0.00 89 1012.8
20260505084945 53 121 0.0 3.0 0.00 0.00 0.00 89 1012.8
20260505083843 54 203 0.0 0.0 0.00 0.00 0.00 87 1012.8
20260505082741 54 203 0.0 4.0 0.00 0.00 0.00 86 1013.2
20260505081639 54 91 0.0 1.0 0.00 0.00 0.00 86 1013.2
20260505080536 54 151 0.0 0.0 0.00 0.00 0.00 86 1013.2
20260505075434 54 196 0.0 3.0 0.00 0.00 0.00 86 1013.2
20260505074331 53 127 0.0 2.0 0.00 0.00 0.00 88 1013.2
20260505073229 53 142 0.0 3.0 0.00 0.00 0.00 90 1013.2
20260505072127 53 180 1.0 0.0 0.00 0.00 0.00 91 1013.2
20260505071024 53 153 0.0 0.0 0.00 0.00 0.00 88 1013.2
20260505065922 54 153 0.0 0.0 0.00 0.00 0.00 87 1013.2
20260505064820 55 153 0.0 0.0 0.00 0.00 0.00 85 1013.2
20260505063717 56 153 0.0 0.0 0.00 0.00 0.00 81 1013.2
20260505062615 57 153 0.0 0.0 0.00 0.00 0.00 77 1013.5
20260505061512 58 153 0.0 0.0 0.00 0.00 0.00 74 1013.5
20260505060410 59 153 0.0 1.0 0.00 0.00 0.00 71 1013.2
20260505055308 60 189 0.0 4.0 0.00 0.00 0.00 69 1013.2
20260505054205 60 117 0.0 6.0 0.00 0.00 0.00 69 1013.2
20260505053103 61 158 4.0 5.0 0.00 0.00 0.00 68 1013.2
20260505052000 61 171 2.0 8.0 0.00 0.00 0.00 69 1013.2
20260505050858 61 182 3.0 7.0 0.00 0.00 0.00 70 1013.2
20260505041346 57 195 2.0 3.0 0.00 0.00 0.00 84 1013.2
20260505040244 56 107 0.0 1.0 0.00 0.00 0.00 83 1013.2
20260505035142 57 98 0.0 0.0 0.00 0.00 0.00 82 1013.2
20260505034039 57 98 0.0 0.0 0.00 0.00 0.00 81 1013.2
20260505032937 57 98 0.0 0.0 0.00 0.00 0.00 83 1013.2
20260505031834 57 98 0.0 0.0 0.00 0.00 0.00 80 1013.2
20260505030732 57 98 0.0 0.0 0.00 0.00 0.00 80 1013.5
20260505024529 57 98 0.0 0.0 0.00 0.00 0.00 78 1013.5
20260505023427 58 98 0.0 0.0 0.00 0.00 0.00 77 1013.5
20260505022325 58 98 0.0 0.0 0.00 0.00 0.00 76 1013.5
20260505021223 59 98 0.0 0.0 0.00 0.00 0.00 74 1013.2
20260505020120 59 98 0.0 0.0 0.00 0.00 0.00 73 1013.2
20260505015018 60 98 0.0 0.0 0.00 0.00 0.00 70 1013.2
20260505013915 61 98 0.0 0.0 0.00 0.00 0.00 68 1013.2
20260505012813 63 98 0.0 0.0 0.00 0.00 0.00 64 1012.8
20260505011710 64 98 0.0 0.0 0.00 0.00 0.00 62 1012.8
20260505010608 66 98 0.0 1.0 0.00 0.00 0.00 58 1012.8
20260505005506 68 115 0.0 0.0 0.00 0.00 0.00 55 1012.8
20260505004403 69 116 1.0 2.0 0.00 0.00 0.00 52 1012.8
20260505003300 70 182 3.0 6.0 0.00 0.00 0.00 51 1012.8
20260505002158 70 127 2.0 5.0 0.00 0.00 0.00 51 1012.5
20260505001055 71 139 4.0 8.0 0.00 0.00 0.00 50 1012.5
20260504235953 72 114 2.0 10.0 0.00 0.00 0.00 50 1012.5
20260504234851 73 185 5.0 10.0 0.00 0.00 0.00 50 1012.1
20260504233748 74 50 1.0 5.0 0.00 0.00 0.00 50 1012.1
20260504232646 75 144 5.0 8.0 0.00 0.00 0.00 48 1012.5
20260504231543 75 173 3.0 13.0 0.00 0.00 0.00 48 1012.5
20260504230441 76 230 2.0 11.0 0.00 0.00 0.00 50 1012.5
20260504225339 76 88 3.0 8.0 0.00 0.00 0.00 48 1012.5
20260504224236 77 182 4.0 9.0 0.00 0.00 0.00 48 1012.5
20260504223134 77 158 5.0 9.0 0.00 0.00 0.00 47 1012.5
20260504222032 77 197 5.0 9.0 0.00 0.00 0.00 48 1012.5
20260504220929 78 196 5.0 8.0 0.00 0.00 0.00 48 1012.5
20260504215827 78 186 3.0 7.0 0.00 0.00 0.00 48 1012.5
20260504214724 78 125 3.0 9.0 0.00 0.00 0.00 47 1012.5
20260504213622 78 101 2.0 11.0 0.00 0.00 0.00 48 1012.5
20260504212519 78 206 4.0 7.0 0.00 0.00 0.00 47 1012.5
20260504211417 78 159 4.0 9.0 0.00 0.00 0.00 48 1012.5
20260504210314 78 219 4.0 8.0 0.00 0.00 0.00 46 1012.8
20260504205212 79 185 5.0 7.0 0.00 0.00 0.00 44 1012.8
20260504204110 79 153 3.0 9.0 0.00 0.00 0.00 46 1013.2
20260504203007 79 224 2.0 17.0 0.00 0.00 0.00 46 1013.2
20260504201905 79 319 3.0 12.0 0.00 0.00 0.00 44 1013.2
20260504200803 80 180 4.0 11.0 0.00 0.00 0.00 45 1013.2
20260504195701 80 152 3.0 12.0 0.00 0.00 0.00 45 1013.2
20260504194558 79 180 3.0 10.0 0.00 0.00 0.00 46 1013.5
20260504193456 79 167 3.0 8.0 0.00 0.00 0.00 45 1013.5
20260504192353 79 203 5.0 9.0 0.00 0.00 0.00 46 1013.5
20260504191251 80 177 2.0 10.0 0.00 0.00 0.00 46 1013.8
20260504190149 79 111 2.0 12.0 0.00 0.00 0.00 47 1014.2
20260504185046 78 166 2.0 7.0 0.00 0.00 0.00 46 1014.2
20260504183943 77 209 5.0 15.0 0.00 0.00 0.00 46 1014.5
20260504182841 78 224 5.0 8.0 0.00 0.00 0.00 48 1014.5
20260504181739 77 186 4.0 10.0 0.00 0.00 0.00 49 1014.5
20260504180636 78 187 3.0 9.0 0.00 0.00 0.00 46 1014.5
20260504175534 78 156 3.0 10.0 0.00 0.00 0.00 48 1014.9
20260504174432 77 184 3.0 12.0 0.00 0.00 0.00 49 1014.9
20260504173329 76 217 7.0 10.0 0.00 0.00 0.00 49 1015.2
20260504172227 76 239 5.0 11.0 0.00 0.00 0.00 47 1015.2
20260504171124 76 39 1.0 9.0 0.00 0.00 0.00 50 1015.2